TimeCDT,TemperatureF,Dew PointF,Humidity,Sea Level PressureIn,VisibilityMPH,Wind Direction,Wind SpeedMPH,Gust SpeedMPH,PrecipitationIn,Events,Conditions,WindDirDegrees,DateUTC
12:53 AM,80.1,61.0,52,29.64,10.0,SSE,15.0,23.0,N/A,,Clear,160,2013-06-23 05:53:00
1:53 AM,79.0,61.0,54,29.62,10.0,South,17.3,28.8,N/A,,Clear,180,2013-06-23 06:53:00
2:53 AM,79.0,61.0,54,29.66,10.0,SSW,9.2,20.7,N/A,,Clear,210,2013-06-23 07:53:00
3:20 AM,80.6,60.8,51,29.81,10.0,NNW,15.0,24.2,N/A,,Clear,330,2013-06-23 08:20:00
3:53 AM,79.0,60.1,52,29.75,10.0,North,21.9,28.8,N/A,,Mostly Cloudy,360,2013-06-23 08:53:00
4:53 AM,73.9,55.0,52,29.75,10.0,NE,21.9,28.8,N/A,,Partly Cloudy,50,2013-06-23 09:53:00
5:53 AM,68.0,57.9,70,29.76,10.0,East,13.8,-,N/A,,Partly Cloudy,80,2013-06-23 10:53:00
6:53 AM,66.0,-9999,N/A,29.78,10.0,East,11.5,-,N/A,,Clear,90,2013-06-23 11:53:00
7:53 AM,68.0,-9999,N/A,29.78,10.0,East,13.8,-,N/A,,Mostly Cloudy,90,2013-06-23 12:53:00
8:53 AM,71.1,-9999,N/A,29.77,10.0,East,15.0,21.9,N/A,,Clear,100,2013-06-23 13:53:00
9:53 AM,75.9,-9999,N/A,29.77,10.0,ESE,17.3,-,N/A,,Clear,110,2013-06-23 14:53:00
10:53 AM,80.1,-9999,N/A,29.79,10.0,ENE,9.2,-,N/A,,Clear,60,2013-06-23 15:53:00
11:53 AM,82.9,-9999,N/A,29.79,10.0,East,6.9,-,N/A,,Clear,80,2013-06-23 16:53:00
12:53 PM,86.0,-9999,N/A,29.79,10.0,East,5.8,-,N/A,,Partly Cloudy,90,2013-06-23 17:53:00
1:53 PM,88.0,-9999,N/A,29.78,10.0,East,10.4,19.6,N/A,,Partly Cloudy,80,2013-06-23 18:53:00
2:53 PM,90.0,-9999,N/A,29.76,10.0,ENE,15.0,19.6,N/A,,Partly Cloudy,60,2013-06-23 19:53:00
3:53 PM,91.0,-9999,N/A,29.75,10.0,ENE,6.9,16.1,N/A,,Partly Cloudy,70,2013-06-23 20:53:00
4:53 PM,91.9,-9999,N/A,29.73,10.0,East,8.1,19.6,N/A,,Clear,80,2013-06-23 21:53:00
5:53 PM,93.0,-9999,N/A,29.72,10.0,East,9.2,-,N/A,,Clear,100,2013-06-23 22:53:00
6:53 PM,91.9,-9999,N/A,29.72,10.0,East,11.5,20.7,N/A,,Clear,80,2013-06-23 23:53:00
7:53 PM,90.0,-9999,N/A,29.72,10.0,ENE,17.3,-,N/A,,Clear,70,2013-06-24 00:53:00
8:53 PM,87.1,-9999,N/A,29.71,10.0,ENE,15.0,-,N/A,,Clear,60,2013-06-24 01:53:00
9:53 PM,84.9,-9999,N/A,29.71,10.0,ENE,13.8,-,N/A,,Scattered Clouds,70,2013-06-24 02:53:00
10:53 PM,82.0,-9999,N/A,29.74,10.0,ENE,5.8,-,N/A,,Clear,60,2013-06-24 03:53:00
11:53 PM,80.1,-9999,N/A,29.74,10.0,East,8.1,-,N/A,,Scattered Clouds,90,2013-06-24 04:53:00